Regional Weather Roundup
Issued by NWS

Home | Current Version | Previous Version | Text Only | Print | Product List | Glossary Off
Versions: 1 2 3 4 5 6 7 8 9 10 11 12 13 14 15 16 17 18 19 20 21 22 23 24 25 26 27 28 29 30 31 32 33 34 35 36 37 38 39 40 41 42 43 44 45 46 47 48 49

000
ASUS43 KDMX 310107
RWRIA

WEATHER ROUNDUP FOR IOWA
NATIONAL WEATHER SERVICE DES MOINES IA
800 PM CDT SUN AUG 30 2015

NOTE: "FAIR" INDICATES FEW OR NO CLOUDS BELOW 12,000 FEET WITH NO
SIGNIFICANT WEATHER AND/OR OBSTRUCTIONS TO VISIBILITY.

* - THESE STATIONS ARE NOT NWS STATIONS...THUS NOT UNDER NWS
QUALITY CONTROL.  THEY ALSO DO NOT REPORT WEATHER SUCH
AS PRECIPITATION OR FOG.

IAZ001>003-012>014-020>022-031>034-043>046-310200-
   NORTHWEST IOWA

CITY           SKY/WX    TMP DP  RH WIND       PRES   REMARKS
CARROLL *      CLEAR     68  68 100 S3        29.97S
CHEROKEE *     PTCLDY    68  66  94 S3        29.95S
DENISON *      MOCLDY    70  66  88 MISG      29.95S
LE MARS *      CLEAR     68  66  94 S9        29.94S
ORANGE CITY *  CLEAR     68  66  94 S5        29.94S
SHELDON *      CLEAR     68  66  94 S7        29.92F FOG
SPENCER        FOG       68  64  87 S7        29.95S VSB 1/2
STORM LAKE *   CLEAR     66  66 100 S7        29.97S FOG
$$

IAZ055>058-069>071-079>083-090>094-310200-
   SOUTHWEST IOWA

CITY           SKY/WX    TMP DP  RH WIND       PRES   REMARKS
ATLANTIC *     CLEAR     70  68  94 CALM      29.97S
AUDUBON *      CLEAR     66  63  88 CALM      29.99S FOG
CLARINDA *     CLEAR     72  72 100 CALM      29.98F
COUNCIL BLFS * CLEAR     70  68  94 S7        29.96F
CRESTON *      CLEAR     72  68  88 SE5       30.00S
HARLAN  *      CLEAR     70 -38   1 S5        30.00S
LAMONI         CLEAR     75  69  81 E3        29.98F
RED OAK *      CLEAR     72  70  94 CALM      29.97S
SHENANDOAH *   CLEAR     72  70  94 CALM      29.97S
$$

IAZ047>049-059>061-072>074-084-310200-
   CENTRAL IOWA

CITY           SKY/WX    TMP DP  RH WIND       PRES   REMARKS
AMES           CLEAR     66  65  96 SE3       29.97F
ANKENY *       CLEAR     70  70 100 CALM      29.97F
CHARITON *     CLEAR     72  70  94 CALM      29.99S
DES MOINES     CLEAR     75  68  78 E6        29.97F
GRINNELL*      CLEAR     70  66  88 SE5       30.01S
KNOXVILLE *    CLEAR     72  68  88 CALM      29.98S
MARSHALLTOWN   CLEAR     68  65  90 SE5       29.98F
PELLA *        CLEAR     72  72 100 CALM      30.00S
PERRY *          N/A     70  68  94 CALM      29.97F
$$

IAZ004>006-015-016-023>025-035-036-310200-
   NORTH CENTRAL IOWA

CITY           SKY/WX    TMP DP  RH WIND       PRES   REMARKS
ALGONA *       CLEAR     68  66  94 S8        29.97S
CLARION *      CLEAR     66  64  94 S6        29.98S
ESTHERVILLE    PTCLDY    67  65  93 S8        29.95S
FORT DODGE *   CLEAR     70  63  78 SE3       29.98S
MASON CITY     CLEAR     66  64  93 S6        30.00S
FOREST CITY *  CLEAR     63  63 100 SE5       29.98S
IOWA FALLS *     N/A     66  64  94 SE5       30.00S
$$

IAZ007>011-017>019-026>030-037>042-050>054-066-310200-
   NORTHEAST IOWA

CITY           SKY/WX    TMP DP  RH WIND       PRES   REMARKS
CEDAR RAPIDS   CLEAR     68  66  93 CALM      30.00S
CHARLES CITY * CLOUDY    68  66  94 S6        30.00S
CLINTON *      CLEAR     66  63  88 E3        30.03S
DECORAH *      CLOUDY    68  64  88 CALM      30.00S
DUBUQUE        CLEAR     67  64  90 CALM      30.02S
MONTICELLO *   CLEAR     66  64  94 CALM      30.01R
OELWEIN *      CLOUDY    68  64  88 SW3       30.01S
WATERLOO       MOCLDY    69  64  84 S5        29.98F
$$

IAZ064-065-067-068-078-310200-
   EAST CENTRAL IOWA

CITY           SKY/WX    TMP DP  RH WIND       PRES   REMARKS
DAVENPORT      CLEAR     68  64  87 E5        30.01S
IOWA CITY      CLEAR     72  66  81 NE3       30.01S
MT. PLEASANT * CLEAR     75  66  73 NE3       30.00S
MUSCATINE *    CLEAR     72  68  88 CALM      30.00S
QUAD CITIES    CLEAR     70  65  84 E5        30.00S
$$

IAZ062-063-075>077-085>089-095>099-310200-
   SOUTHEAST IOWA

CITY           SKY/WX    TMP DP  RH WIND       PRES   REMARKS
BURLINGTON     CLEAR     75  68  78 E3        30.00R
FAIRFIELD *    CLEAR     70  66  88 E3        30.00S
FORT MADISON * CLEAR     72  70  94 CALM      30.01S
KEOKUK *       CLEAR     75  72  88 E5        29.99R
OSKALOOSA *      N/A     70  68  94 E5        30.00S
CENTERVILLE *  CLEAR     72  70  94 E3        30.01S
OTTUMWA        CLEAR     73  69  87 E5        29.98S
WASHINGTON *     N/A    N/A N/A N/A MISG        N/A
$$

ABBREVIATIONS USED IN REMARKS
   TC - TEMPERATURES IN CELSIUS
  WCI - WIND CHILL INDEX
   HX - HEAT INDEX
  VSB - VISIBILITY
$$



USA.gov is the U.S. government's official web portal to all federal, state and local government web resources and services.